Location: Ravensburg
(47.7866°N, 9.6124°E)
Time: 06:30:59
(UTC+02:00)

AO-73 - Pass Details

Date: 23 March 2026
Orbit: 514 x 567 km, 97.8° (Epoch: 17 April)

Event Time Altitude Azimuth Distance (km) Brightness Sun altitude
Rises 05:44:53 0° 353° (N) 2,653 ? -6.5°
Maximum altitude 05:49:29 11° 301° (WNW) 1,689 ? -5.7°
Drops below altitude 10° 05:50:30 10° 285° (WNW) 1,746 ? -5.6°
Enters shadow 05:51:59 - 266° (W) 2,014 ? -5.3°
